Location: The Saddle
(36.8333°N, 80.3417°W)
Time: 13:59:35
(UTC-05:00)

Tiros 1 - Visible Passes

Search period start: 29 January 2023 00:00
Search period end: 08 February 2023 00:00
Orbit: 628 x 662 km, 48.4° (Epoch: 29 January)

Date Brightness Start Highest point End Pass type
(mag) Time Alt. Az. Time Alt. Az. Time Alt. Az.
29 Jan 9.1 05:12:50 19° N 05:12:50 19° N 05:15:29 10° NE visible
29 Jan 8.7 06:51:22 10° NW 06:55:21 26° NNE 06:59:22 10° ENE visible
30 Jan 8.9 05:37:06 19° N 05:38:02 20° N 05:41:34 10° NE visible
31 Jan 10.0 04:23:45 11° NE 04:23:45 11° NE 04:24:06 10° NE visible
31 Jan 8.7 06:01:23 16° NNW 06:03:59 25° NNE 06:07:56 10° ENE visible
01 Feb 9.4 04:48:03 18° NNE 04:48:03 18° NNE 04:50:07 10° NE visible
01 Feb 8.2 06:25:40 11° NW 06:29:47 38° NNE 06:34:13 10° E visible
02 Feb 8.8 05:12:22 24° N 05:12:36 24° NNE 05:16:27 10° ENE visible
02 Feb 7.4 06:50:40 10° NW 06:55:22 71° NNE 07:00:07 10° ESE visible
03 Feb 8.3 05:36:43 27° NNW 05:38:26 35° NNE 05:42:47 10° E visible
04 Feb 9.7 04:23:30 17° NE 04:23:30 17° NE 04:24:59 10° ENE visible
04 Feb 7.4 06:01:08 22° NW 06:04:03 64° NNE 06:08:44 10° ESE visible
05 Feb 8.7 04:47:58 30° NE 04:47:58 30° NE 04:51:19 10° E visible
05 Feb 7.3 06:25:36 15° WNW 06:29:26 61° SW 06:34:05 10° SE visible
06 Feb 7.4 05:12:31 58° NNE 05:12:42 59° NNE 05:17:21 10° ESE visible
06 Feb 8.4 06:50:43 10° WNW 06:54:36 26° SW 06:58:32 10° S visible
07 Feb 10.2 03:59:31 12° E 03:59:31 12° E 03:59:52 10° E visible
07 Feb 7.1 05:37:10 52° W 05:38:07 68° SW 05:42:47 10° SE visible
